RH
4 3 3 3 3 3 3 3 2 2 2 2 2 2 2 2 3 5 6 9 11 13 15 17 20 23 24 26 27 27 27 25 24 22 20 20 18 17 15 15 14 13 13 13 13 12 12 12 12 11 11 10 10 10 9 9 8 8 9 7 10 7 14 31 36 27 24 25 9 1 6 4 6 3 12 26 30 38 51 54 36 31 28 23 40 48 48 47
4 4 4 3 3 3 3 3 2 2 2 2 2 2 2 2 3 5 7 11 15 20 24 28 30 30 31 32 33 32 32 30 28 26 25 23 21 20 18 17 16 15 15 15 15 14 14 14 13 13 12 11 11 11 10 11 10 10 9 10 9 8 25 34 33 28 18 16 6 2 7 4 6 4 13 32 44 49 56 59 38 22 19 19 38 42 36 33
4 4 4 4 3 4 3 3 3 3 2 2 2 2 3 3 4 6 9 13 18 25 31 37 41 40 39 39 39 38 36 34 31 30 29 26 24 23 21 20 18 18 17 16 17 16 16 16 15 14 13 12 12 11 11 11 11 11 10 11 9 12 33 30 14 13 8 8 5 4 7 4 8 3 10 35 57 73 74 72 64 46 26 22 35 31 22 18
4 4 4 4 4 4 4 4 3 3 3 3 2 2 3 3 5 7 9 14 20 28 34 42 47 48 47 45 44 42 41 38 34 33 31 29 27 26 25 23 21 20 20 19 19 18 18 17 16 16 15 14 13 12 11 12 11 13 12 11 14 16 26 19 6 8 6 6 5 6 8 6 8 4 8 22 37 63 73 72 75 66 48 41 42 34 28 25
4 5 4 4 5 5 4 4 4 4 3 3 3 3 3 3 5 7 10 13 19 28 36 43 49 52 52 51 50 48 47 42 36 34 33 30 28 28 26 25 24 22 22 21 20 20 19 18 18 16 16 15 14 13 13 13 13 14 13 12 16 16 15 11 8 8 5 7 7 6 9 7 7 7 6 9 21 46 58 62 70 72 68 58 48 46 42 31
5 5 5 5 5 5 5 5 5 4 4 4 5 5 5 4 5 7 10 13 17 25 34 41 48 54 56 56 55 54 54 47 39 37 34 31 30 28 27 27 26 25 24 23 22 21 21 19 19 17 16 17 15 15 14 15 14 14 14 14 15 13 11 12 9 8 8 9 8 8 9 8 8 8 7 9 19 34 45 53 63 67 68 59 52 49 36 22
5 5 6 6 6 6 6 6 6 5 5 5 6 6 7 7 6 7 10 13 16 21 29 37 45 53 58 59 57 57 58 52 46 44 39 34 31 29 28 27 26 26 25 24 24 22 22 20 19 19 18 18 17 16 16 16 15 14 15 16 16 14 14 14 8 9 12 9 9 9 9 9 10 10 9 11 11 18 35 48 57 59 51 44 43 36 22 15
5 5 6 6 7 7 7 7 7 7 7 7 7 8 8 9 9 9 9 13 16 19 24 32 40 49 58 62 61 60 59 55 51 48 45 42 36 30 28 28 27 27 26 24 24 23 22 21 20 20 18 18 18 16 17 16 15 15 16 16 15 14 14 13 10 11 12 10 11 9 10 11 11 12 10 12 10 8 20 29 33 36 33 27 25 20 15 15
6 6 6 7 7 8 8 8 8 9 8 9 9 10 10 10 11 11 11 12 15 18 22 30 37 42 51 60 63 63 60 58 55 49 46 46 43 36 29 28 27 26 26 25 24 23 22 21 20 20 19 18 18 17 17 16 15 15 17 17 16 15 16 14 12 13 12 12 11 10 13 12 11 12 10 13 13 9 15 17 15 22 26 19 15 16 17 19
6 6 6 7 8 8 9 9 10 10 10 10 11 12 13 12 12 13 12 12 15 18 21 27 36 40 45 53 61 63 59 57 55 49 46 45 45 42 34 29 28 27 26 25 24 24 22 22 21 20 19 18 17 17 16 16 16 16 16 16 16 15 16 15 13 13 13 13 12 12 13 14 13 11 14 17 11 13 22 20 20 29 27 16 17 22 20 21
6 6 7 7 8 8 9 9 10 10 11 12 13 15 16 15 14 14 14 14 14 17 20 24 33 40 42 45 54 58 56 55 50 45 44 44 43 43 40 33 29 28 28 26 25 24 22 22 20 19 19 18 18 17 16 16 15 15 16 16 15 16 16 15 15 15 15 13 12 14 15 16 14 10 20 24 13 16 25 24 29 32 22 15 21 23 18 19
6 7 7 7 8 8 9 9 9 9 10 12 16 18 20 20 17 14 15 15 15 16 19 22 29 39 42 42 45 48 49 51 49 45 44 44 42 42 43 39 33 29 29 28 26 24 23 21 20 19 18 17 17 16 16 15 15 15 14 15 14 15 16 15 16 16 15 15 15 17 17 17 14 13 22 20 13 19 25 28 34 31 20 14 18 19 16 16
6 7 7 8 8 9 9 9 8 9 10 13 18 20 23 24 21 17 15 16 17 16 18 21 25 33 41 43 43 45 46 47 49 48 46 45 43 41 43 43 37 31 29 28 27 25 22 20 19 17 17 16 15 15 15 14 15 14 13 15 15 15 16 16 18 18 16 16 17 17 17 18 15 14 18 16 18 24 24 26 32 31 23 16 16 17 15 15
6 7 7 8 8 8 9 9 8 9 10 14 18 22 25 26 26 21 17 17 18 18 18 20 23 28 40 45 43 49 56 55 55 51 46 45 45 44 43 43 40 35 31 29 27 24 21 19 17 16 15 14 13 13 13 13 14 13 13 13 13 15 15 15 17 18 18 16 17 18 18 22 22 21 21 18 21 27 29 27 27 31 26 17 16 17 15 14
7 7 7 8 8 8 8 8 9 9 10 13 18 22 26 28 29 26 21 19 18 20 20 19 22 26 39 49 44 50 60 62 63 58 49 45 46 49 46 42 41 37 34 31 28 24 21 18 16 15 13 11 12 13 12 13 13 13 13 12 13 13 13 23 24 17 19 18 17 20 19 22 29 37 36 23 19 24 31 28 24 29 26 17 16 16 16 15
8 8 8 8 8 8 8 8 8 9 10 12 16 21 27 29 31 29 25 21 20 21 20 20 22 26 40 52 50 53 58 58 60 58 53 51 50 50 48 45 42 38 35 31 26 22 18 17 15 14 12 11 11 11 11 12 12 12 11 10 13 11 14 35 36 16 17 21 17 20 19 21 33 46 48 36 24 21 26 25 23 26 22 16 17 16 17 16
9 9 9 9 9 9 9 9 9 9 10 12 15 20 27 30 31 31 30 26 23 22 22 22 23 30 42 49 50 53 56 58 58 55 53 55 54 51 49 46 43 39 35 29 22 18 16 15 15 13 12 11 10 11 12 12 13 13 14 12 12 14 18 40 47 21 15 23 19 19 19 23 40 49 47 45 35 26 24 22 24 26 20 17 17 16 17 16
10 9 9 9 9 9 9 9 10 10 10 11 14 19 25 31 31 32 32 30 28 24 24 23 23 33 42 46 51 53 55 60 58 55 54 54 55 53 49 46 42 38 32 23 18 16 16 15 14 13 11 10 11 11 10 17 22 15 11 8 13 30 27 32 54 36 15 22 20 18 20 21 39 47 38 37 32 27 27 23 24 26 20 19 18 16 17 16
10 10 9 9 9 9 9 9 10 10 11 11 13 17 23 29 32 32 32 32 31 28 26 24 27 34 38 46 56 55 55 59 57 56 55 53 53 52 48 44 39 33 24 17 16 15 16 16 14 13 11 11 11 10 13 37 60 56 45 24 14 42 39 22 53 53 18 18 21 18 21 18 28 39 32 25 23 24 27 24 24 25 21 19 19 18 18 17
11 10 10 10 9 10 10 9 10 10 11 11 12 15 20 26 31 33 33 34 33 32 29 27 32 38 41 48 56 54 55 57 55 53 52 51 50 48 46 42 34 25 17 15 16 17 16 15 14 12 12 11 12 12 12 31 54 60 67 50 25 45 49 25 47 55 18 13 23 17 20 21 18 28 33 23 18 23 26 25 24 22 21 20 20 18 17 18
11 11 10 10 10 10 10 9 10 10 10 12 12 15 19 24 30 33 35 36 35 35 34 31 34 42 48 52 55 56 56 56 53 51 49 47 46 44 40 35 26 18 16 17 16 17 17 16 14 12 12 11 11 13 11 13 17 18 30 33 26 39 50 45 52 42 14 11 21 18 19 23 16 24 39 30 19 22 23 23 22 20 20 20 21 19 17 18
10 10 10 10 10 9 10 9 9 10 10 11 12 14 18 21 25 28 34 39 37 35 38 38 37 42 48 52 57 58 56 55 52 49 47 43 41 38 33 25 19 16 17 18 17 18 17 16 15 13 12 11 10 11 10 10 12 13 14 13 22 33 43 65 61 26 11 13 15 19 20 18 19 31 39 27 20 23 21 20 20 20 20 19 20 18 17 18
9 9 9 8 8 8 9 9 10 11 11 11 11 12 15 19 22 24 31 41 41 35 35 40 40 42 47 52 57 59 56 54 49 45 42 40 35 31 26 20 17 18 18 18 19 19 18 18 16 14 13 12 10 10 10 11 11 13 17 12 22 38 46 67 59 19 10 16 14 19 20 18 24 32 30 21 19 21 18 20 19 19 19 19 19 18 18 18
9 9 9 9 9 10 11 11 12 13 13 13 12 11 13 16 19 21 29 40 46 40 35 37 39 41 46 50 53 54 53 52 48 43 36 34 32 25 21 19 19 20 19 21 21 18 21 23 18 14 14 12 10 11 9 11 12 10 16 13 19 49 63 62 54 33 18 14 15 19 23 30 29 22 20 18 19 19 17 20 18 17 19 18 18 17 15 15
22 21 21 20 21 21 21 20 19 18 17 15 13 12 12 14 15 18 24 34 46 45 38 38 38 38 41 45 46 46 48 49 48 44 34 28 27 23 19 18 20 22 21 22 21 21 25 23 17 15 15 13 11 12 9 10 12 9 13 11 17 56 79 64 44 33 23 17 18 17 22 40 39 25 22 18 17 19 17 17 17 19 20 16 17 15 12 14
35 34 34 33 32 31 31 30 28 25 23 20 16 14 13 13 13 15 20 30 41 44 44 43 38 37 38 38 38 40 43 44 44 43 34 25 24 21 20 21 21 23 25 24 22 24 27 21 18 17 15 14 12 11 11 10 9 11 14 10 14 42 66 63 38 21 29 44 43 22 17 49 62 43 30 20 18 24 21 21 23 27 28 21 16 15 18 21
40 39 39 38 36 36 35 35 34 32 29 26 21 18 16 14 13 14 19 28 33 36 45 49 42 38 38 35 34 35 36 37 40 42 33 24 22 20 21 24 24 24 24 24 23 23 23 22 20 19 16 15 14 12 12 10 10 23 27 10 8 22 29 34 26 14 33 62 65 34 18 58 86 66 45 27 20 26 25 25 25 26 31 29 25 25 29 30
43 42 42 41 40 39 38 38 38 37 35 32 27 24 20 17 16 14 20 30 31 31 39 46 46 43 40 36 35 33 33 35 34 32 29 24 22 22 24 25 26 26 24 24 29 27 23 23 23 21 17 15 15 13 14 11 12 29 36 15 8 13 11 14 14 14 32 56 67 51 32 56 86 83 68 42 24 24 21 19 19 23 34 37 35 34 31 34
44 44 44 43 42 42 41 40 40 40 40 37 34 30 24 20 18 19 27 33 33 34 36 39 44 46 42 39 37 35 34 34 30 29 28 24 21 23 27 27 26 28 26 26 32 31 24 22 23 21 19 19 18 15 14 13 12 19 25 22 18 13 9 11 9 16 40 51 59 66 53 54 78 91 80 53 41 39 25 18 21 26 39 43 42 42 38 42
40 40 40 40 40 40 40 40 41 42 43 41 39 36 30 24 20 21 27 28 29 34 35 36 42 48 48 43 37 37 36 33 33 36 33 26 24 25 27 29 28 27 27 27 29 28 24 23 23 21 21 23 23 19 15 13 14 14 18 25 24 16 12 8 7 27 55 52 47 70 76 67 77 86 75 60 57 53 35 28 32 35 42 45 44 47 47 51
30 31 32 32 34 34 35 37 39 41 43 44 43 40 36 29 24 23 22 21 25 28 30 37 41 45 53 51 43 39 37 36 36 36 34 28 25 26 27 29 29 28 27 27 27 24 24 26 25 22 22 22 21 18 16 15 13 15 24 30 25 22 17 12 19 37 56 55 52 73 82 71 74 82 83 75 59 51 47 44 47 46 49 50 47 51 57 58
14 15 16 18 21 23 26 29 33 38 40 43 44 43 41 34 28 27 24 25 30 28 27 32 35 40 50 55 54 47 39 39 38 34 35 34 29 27 28 30 30 29 27 27 27 25 26 28 26 24 22 22 22 19 17 16 13 17 22 24 39 54 47 42 47 43 42 50 63 84 89 76 76 81 86 79 55 48 55 52 48 45 46 53 59 66 68 64
5 5 6 7 7 9 12 15 22 29 34 39 42 43 44 40 34 30 26 29 35 34 33 37 38 42 48 51 57 57 49 46 44 39 37 37 37 32 30 33 33 32 33 33 31 29 28 28 28 28 26 24 23 26 33 25 13 19 17 20 55 80 66 57 62 56 52 57 66 82 89 86 83 70 66 71 63 56 55 48 46 48 53 60 68 71 60 53
4 3 4 4 4 4 4 5 8 14 22 30 37 42 43 39 36 35 29 29 37 38 37 45 46 43 45 49 55 60 61 60 53 46 42 41 44 42 35 33 32 32 37 38 36 39 38 33 31 29 28 30 23 30 57 53 25 16 18 39 78 90 74 64 66 73 77 77 83 82 72 77 82 64 54 61 63 62 58 49 43 41 47 50 51 55 52 51
4 4 4 4 4 4 3 4 4 4 9 15 26 35 35 35 40 41 33 28 37 40 33 36 42 41 42 46 53 59 66 75 68 55 51 48 47 48 45 41 36 32 36 37 40 50 52 47 46 38 30 34 29 27 45 56 48 31 23 49 81 86 85 79 71 77 78 80 96 87 62 62 68 59 56 58 61 64 58 50 44 36 35 36 33 42 50 54
5 5 5 4 5 4 4 4 4 4 4 5 11 18 22 33 44 47 40 30 37 49 47 40 39 43 45 47 58 63 66 81 85 71 63 57 53 54 51 51 50 44 46 48 47 52 59 68 72 57 40 37 37 35 32 41 68 70 48 59 85 92 93 88 83 81 68 67 84 79 63 62 56 47 51 63 72 71 58 51 53 49 44 38 33 39 47 51
6 6 6 5 5 5 5 4 4 4 5 4 4 5 11 25 41 53 52 38 37 53 61 56 47 46 48 57 73 75 65 71 76 68 65 66 67 65 56 59 64 56 54 58 59 61 66 82 88 66 52 51 45 45 38 31 59 85 77 77 93 93 80 74 84 86 68 61 70 71 67 69 71 56 44 54 60 55 56 60 60 58 53 46 39 37 41 47
6 5 5 5 5 5 5 5 5 4 4 4 4 3 5 10 25 50 60 45 33 39 50 53 51 51 53 63 80 78 64 67 70 61 62 68 74 76 70 74 77 67 61 60 64 69 66 79 91 72 63 69 53 46 48 36 41 70 87 91 93 92 78 62 59 62 63 63 61 65 63 65 85 79 49 46 45 34 41 51 54 59 58 53 49 44 43 48
6 6 6 7 8 7 6 4 5 5 4 5 4 4 5 4 8 29 48 50 38 29 32 40 49 60 64 69 82 83 74 78 77 65 66 73 74 76 81 93 94 82 75 71 68 71 66 72 89 84 80 86 67 49 50 45 38 44 59 80 93 97 92 81 66 55 64 74 67 72 76 70 82 82 59 53 50 39 43 47 52 61 62 59 57 53 53 54
5 4 7 11 10 9 9 7 5 4 4 5 4 3 4 4 5 11 26 44 49 34 24 36 56 65 64 64 74 87 91 88 77 68 75 86 84 77 79 92 100 90 83 82 78 81 80 75 82 86 87 89 75 59 53 56 63 56 45 56 80 94 88 80 79 72 75 86 80 81 91 82 75 75 63 55 50 49 56 58 59 61 60 60 58 58 62 59
3 14 27 25 15 9 8 7 6 6 7 6 5 5 5 3 3 6 14 32 52 46 24 30 54 58 55 59 60 72 87 85 77 73 76 88 94 88 81 82 91 93 92 92 88 88 86 80 81 86 87 86 82 79 74 71 82 89 76 59 64 88 92 74 73 79 81 87 87 87 92 85 81 78 66 56 52 51 53 56 57 57 57 59 57 57 61 58
7 26 34 20 9 8 7 7 10 13 19 20 13 5 6 9 6 4 9 22 45 54 31 22 37 44 49 58 55 60 72 78 86 85 78 87 96 91 88 84 83 92 102 102 95 92 88 80 79 80 83 86 87 90 86 74 75 89 97 88 77 84 86 70 68 81 85 84 86 91 91 86 87 86 76 71 65 54 48 48 50 51 49 49 47 46 47 45
8 22 23 11 8 10 7 11 17 21 31 44 45 28 11 8 9 10 12 16 33 54 42 20 25 37 45 53 56 57 57 66 87 91 81 89 94 90 92 90 86 93 99 96 88 86 91 90 83 78 81 83 84 88 83 75 76 78 79 87 93 94 90 79 76 84 90 90 89 93 91 84 85 85 82 81 71 57 47 41 42 44 40 38 39 40 41 38
8 18 21 16 13 11 10 15 24 35 47 61 75 74 52 24 8 13 25 20 21 47 54 29 17 29 39 48 56 57 52 56 74 82 81 86 90 93 95 91 93 98 95 90 85 83 92 98 89 84 85 85 89 94 87 79 80 79 74 77 87 94 94 92 91 89 90 92 95 99 93 83 83 82 80 81 74 63 53 45 46 49 44 42 42 42 41 39
15 20 21 21 18 15 15 14 17 34 55 70 86 96 90 62 25 13 35 40 23 34 59 49 23 16 27 39 47 54 56 54 59 71 83 88 87 90 93 87 87 90 87 90 95 94 96 99 95 91 89 89 97 100 94 90 83 77 79 77 76 82 83 82 86 88 87 89 93 99 94 87 87 84 79 81 77 66 59 56 58 57 52 49 46 44 42 42
19 23 22 23 21 19 21 18 12 20 35 51 71 83 87 88 63 25 23 41 35 30 54 74 56 25 18 28 38 49 55 53 54 60 70 84 85 81 85 82 75 77 80 82 88 93 96 98 99 97 93 92 99 97 92 94 86 81 86 81 73 81 84 80 82 84 86 90 92 95 93 91 94 89 82 84 80 69 65 65 64 62 59 55 50 49 49 45
19 21 13 15 30 47 60 49 24 15 21 29 46 61 68 87 96 64 27 26 43 45 51 76 77 43 19 19 27 40 49 52 55 51 56 80 90 81 82 83 73 73 77 72 72 79 85 89 93 96 99 99 98 96 94 95 93 94 96 85 76 78 78 77 79 77 78 88 93 93 89 86 92 93 89 90 85 71 65 65 65 65 64 61 57 55 53 47
17 19 9 22 60 83 89 79 47 23 23 26 34 46 53 63 82 82 47 22 43 70 73 71 61 36 19 17 20 29 39 47 55 51 53 76 85 73 71 74 70 70 71 67 68 71 73 77 80 84 92 94 92 94 95 93 96 98 90 80 82 84 79 77 78 72 72 84 92 91 86 86 90 92 93 97 94 81 70 69 70 69 68 66 61 55 49 46
14 19 18 43 77 73 57 65 66 48 35 31 31 33 35 36 47 66 60 36 36 63 79 73 47 23 18 20 19 23 30 38 50 55 55 64 74 71 66 63 64 64 65 67 69 71 72 74 73 73 76 80 85 95 97 93 96 98 90 85 91 91 83 80 80 78 74 76 81 86 91 97 98 94 95 99 96 89 80 75 73 71 70 68 63 57 50 44
12 20 27 47 67 58 43 53 68 65 50 42 42 35 24 21 25 38 53 53 46 47 63 76 58 28 20 22 21 23 26 30 42 55 58 57 61 65 63 62 61 60 65 72 71 68 68 69 73 75 73 74 78 86 95 98 100 100 93 88 87 84 77 74 77 84 83 78 79 83 89 93 93 93 98 101 98 91 83 79 77 74 72 71 68 62 55 45
12 18 26 41 56 64 77 87 86 75 56 55 70 63 39 31 31 26 33 53 69 69 71 81 69 38 24 24 23 24 25 24 28 38 46 47 46 49 53 57 59 56 60 66 68 73 79 79 81 80 76 78 79 81 91 97 99 100 98 94 92 88 83 78 82 88 87 83 86 88 84 80 78 80 87 93 97 95 86 80 79 77 75 74 72 68 62 53
13 16 22 41 57 65 80 95 97 87 67 67 87 79 50 42 47 42 41 53 72 81 74 67 59 44 32 26 23 25 25 23 20 20 26 30 31 34 39 45 48 50 54 56 56 69 86 94 95 92 87 86 85 87 96 100 99 99 100 99 97 94 89 86 90 94 90 85 86 85 82 78 74 75 79 81 85 86 83 81 80 78 77 74 69 64 60 55
Wind_Speed
28 28 29 29 29 29 29 30 30 30 31 31 31 31 30 30 30 29 29 28 27 26 25 24 24 24 24 24 24 24 25 25 26 27 28 28 29 29 30 30 30 30 29 28 27 26 26 25 25 25 25 26 25 25 25 25 25 24 25 23 21 21 17 16 17 19 21 27 39 30 18 24 26 22 20 19 21 19 19 22 22 23 25 23 22 23 24 25
27 28 28 28 28 28 28 29 29 29 29 29 30 30 30 29 29 29 28 27 26 25 24 23 22 22 22 22 22 23 23 24 24 25 25 26 27 27 28 28 28 28 28 27 26 24 24 24 24 24 25 25 25 26 25 24 25 24 24 22 21 19 14 20 26 26 29 32 34 22 16 24 24 21 19 17 17 17 19 21 21 23 25 24 23 24 24 24
26 27 27 27 27 27 27 27 28 28 28 28 28 28 29 29 29 29 28 27 26 24 23 22 21 21 21 21 21 21 22 23 23 23 23 24 24 25 25 26 26 26 26 25 24 24 23 23 23 23 24 25 25 26 25 24 25 24 23 22 21 17 18 28 31 30 31 29 28 19 17 22 22 22 19 16 16 16 17 18 19 21 24 25 25 24 23 23
26 26 25 25 25 25 26 26 26 26 26 26 26 27 27 28 28 29 29 28 27 25 24 22 22 21 21 20 20 20 21 23 23 22 22 22 23 23 23 24 24 25 24 24 24 23 23 23 23 23 24 25 25 26 25 24 24 24 24 21 18 20 27 30 27 28 30 28 25 18 17 21 22 20 19 19 17 15 17 18 19 21 22 25 25 22 21 20
25 25 24 24 24 24 24 24 25 25 25 25 25 25 26 27 28 28 29 29 28 26 25 24 22 21 21 20 20 20 21 24 22 20 22 22 22 22 22 22 23 23 23 23 23 23 23 23 23 23 24 25 26 26 25 24 23 24 24 20 21 27 28 27 29 30 27 25 22 18 19 21 19 19 20 19 15 16 20 20 20 20 21 24 24 20 18 17
24 24 23 23 23 23 23 23 24 24 24 24 24 23 24 25 26 27 28 29 29 28 26 25 24 22 22 21 21 21 22 24 20 18 20 21 22 22 22 22 22 22 22 22 23 22 23 23 23 24 24 25 26 26 25 25 24 24 23 21 26 29 23 26 32 27 24 24 22 20 20 18 17 19 19 17 19 22 22 21 19 20 20 21 21 19 19 19
23 23 22 22 22 22 22 22 23 23 23 23 23 23 23 24 25 26 27 28 29 29 28 26 25 24 23 22 23 22 24 25 21 19 19 20 21 22 22 23 22 22 23 23 22 22 23 23 23 24 24 25 27 26 25 26 26 25 24 23 28 28 24 30 32 23 24 25 23 21 18 17 17 20 20 20 25 24 19 20 21 21 22 21 21 20 20 21
23 22 22 21 21 21 21 21 21 22 22 22 22 22 22 23 23 24 26 27 28 29 29 28 27 26 25 24 24 24 26 25 23 22 21 20 20 21 22 23 23 23 23 23 23 23 23 23 24 24 25 26 28 27 26 28 28 25 24 26 29 27 26 31 29 24 26 25 24 22 18 20 20 22 21 20 25 23 19 23 23 22 23 24 24 22 22 23
22 22 21 21 21 20 20 20 20 21 21 21 21 21 22 23 23 24 24 26 28 29 30 29 29 28 27 26 25 27 28 25 24 25 23 23 21 21 22 22 23 23 23 24 24 24 24 25 25 25 27 27 29 28 27 30 28 24 26 28 29 27 27 30 28 26 26 26 25 22 20 22 23 23 19 19 24 20 20 24 22 23 24 24 24 22 23 24
22 22 21 21 20 20 20 20 20 20 20 20 20 20 21 22 23 24 24 25 27 28 29 30 30 29 29 28 27 29 28 26 26 26 24 25 24 22 22 22 22 22 23 23 24 24 25 26 26 26 27 27 29 28 29 30 27 28 29 30 30 28 28 30 29 28 26 26 26 23 21 21 25 23 17 22 23 18 20 22 21 24 24 23 22 21 23 24
22 22 21 21 20 20 20 20 20 20 19 19 19 19 20 21 22 23 24 25 26 28 28 29 31 30 30 29 29 30 29 27 28 27 25 26 26 25 23 22 23 23 23 23 23 24 24 25 25 26 26 28 30 28 29 29 28 31 30 30 31 28 29 30 29 27 26 26 25 22 22 24 26 20 16 23 22 20 22 20 21 24 24 22 21 21 24 24
23 22 21 21 20 20 20 20 20 19 19 19 18 18 19 19 20 22 24 25 26 27 28 28 30 30 30 29 30 30 29 29 28 26 26 25 26 27 25 24 24 24 24 24 24 24 24 24 24 25 27 28 28 28 31 30 30 32 29 29 30 27 29 30 28 27 26 26 25 24 25 27 24 15 17 25 21 20 21 20 23 24 23 22 21 23 24 24
23 22 22 21 21 20 20 20 19 19 19 19 18 18 18 19 19 21 22 24 25 27 28 28 28 30 29 29 28 28 29 28 27 26 26 25 25 27 27 26 24 24 25 24 24 24 24 24 24 26 27 25 27 30 31 29 29 31 28 28 30 28 30 30 28 28 27 27 26 27 26 26 23 15 20 27 21 20 20 21 23 24 23 22 22 23 24 25
24 23 22 22 21 21 20 20 19 19 19 19 18 18 18 19 19 20 21 22 24 25 27 27 27 28 28 28 27 27 27 27 26 26 25 25 25 26 27 27 26 25 25 24 24 24 24 24 25 27 26 25 29 30 28 27 29 29 28 30 31 30 31 29 29 29 29 28 26 26 24 25 22 14 21 26 21 20 21 22 24 25 24 22 22 22 23 25
24 24 23 22 22 21 20 20 19 19 19 19 19 18 18 19 20 20 20 21 22 24 26 26 26 26 27 28 27 26 27 26 25 25 25 25 25 25 26 27 27 26 26 25 25 24 25 25 25 26 26 27 29 27 26 28 28 28 29 30 30 31 28 24 29 32 29 28 27 26 26 24 13 11 27 27 21 23 22 22 25 25 25 23 22 21 23 25
25 24 24 23 22 21 21 20 20 20 19 19 19 19 19 19 20 20 19 19 20 22 24 25 25 25 27 27 26 26 26 25 24 24 24 24 25 26 26 26 27 27 26 25 25 25 25 25 25 26 25 25 26 26 26 27 27 28 28 29 29 30 25 19 29 34 28 29 31 27 26 19 9 14 29 27 21 24 23 23 25 24 25 24 22 22 23 24
26 25 24 24 23 22 22 21 20 20 20 19 19 19 19 20 20 20 19 18 19 20 22 24 24 24 26 27 26 26 25 24 23 24 24 24 25 25 25 26 26 26 26 25 25 25 24 24 24 24 25 25 25 25 26 26 26 26 26 27 26 26 25 20 27 33 29 32 34 27 24 19 16 25 31 25 21 23 22 24 25 24 24 23 23 23 22 24
27 26 26 25 24 23 23 22 21 21 20 20 19 19 20 20 20 20 19 18 18 18 20 22 22 24 26 25 26 25 23 23 23 23 23 24 25 25 25 26 26 26 25 25 24 24 23 24 23 24 24 24 24 24 24 22 21 22 24 26 25 24 28 25 22 29 30 34 35 28 25 24 23 29 32 28 23 21 23 25 26 25 23 22 24 24 23 24
27 27 27 26 25 24 24 23 22 21 21 20 20 20 21 21 21 20 19 18 17 17 19 20 21 24 25 24 25 24 23 22 22 23 22 23 24 25 25 25 25 25 25 24 23 23 23 23 23 23 23 22 23 23 20 16 13 16 19 24 26 23 28 28 20 28 34 34 34 31 28 28 27 30 33 32 26 24 27 28 27 25 23 24 25 25 24 24
28 28 27 27 26 25 25 24 23 22 22 21 20 20 21 22 22 20 18 18 17 16 17 18 20 24 24 23 25 23 22 22 22 22 22 23 24 24 24 24 25 24 24 24 23 23 22 22 22 21 21 21 22 22 23 25 23 21 19 22 25 22 23 26 24 32 38 34 33 32 29 28 29 30 33 34 29 27 29 29 28 26 24 27 27 26 26 25
28 28 28 27 27 26 25 25 24 23 22 22 21 21 22 23 23 21 18 18 18 16 16 18 19 22 23 23 23 22 22 22 22 22 21 23 23 24 24 23 23 23 23 23 22 22 21 21 21 20 22 23 23 24 27 30 27 24 23 24 26 25 20 18 24 37 39 32 32 31 29 31 31 27 31 35 30 28 30 29 29 27 27 28 27 26 26 26
28 28 27 27 26 25 25 24 24 23 22 23 22 22 23 23 23 22 19 19 19 17 16 18 20 22 23 23 22 21 22 22 22 22 22 23 23 23 23 22 23 22 22 23 22 21 21 21 21 21 24 24 22 23 24 24 21 21 22 23 25 25 21 17 27 38 34 27 29 31 31 33 30 27 33 35 28 28 30 29 29 28 28 29 28 27 27 28
26 26 26 26 25 24 24 24 24 23 23 23 23 24 24 24 24 23 20 19 20 19 16 18 20 22 22 21 21 21 22 22 22 22 22 22 23 23 22 22 22 23 23 22 22 21 20 20 21 23 24 21 20 20 21 21 21 20 20 22 22 22 22 21 27 35 33 27 27 31 32 32 30 31 33 32 29 29 29 28 30 29 29 30 29 29 28 28
24 24 24 24 24 23 23 23 24 23 23 23 23 24 25 25 25 23 22 20 20 20 17 18 21 21 21 20 21 22 23 23 23 22 21 22 23 23 23 23 23 23 22 22 23 21 20 21 23 25 22 19 19 19 20 19 19 19 19 22 23 19 20 22 25 29 32 31 28 29 31 29 30 31 31 31 30 29 28 28 30 29 30 30 29 28 27 26
23 23 23 23 23 23 22 23 24 24 24 24 24 24 25 26 26 24 23 21 21 22 19 19 21 21 20 19 20 22 24 23 23 22 21 22 23 23 24 25 24 23 22 22 23 21 21 24 25 23 19 18 19 18 18 18 18 19 19 21 22 19 17 24 30 28 24 25 26 27 27 26 28 27 28 31 29 28 28 28 29 29 29 28 26 25 24 21
25 25 25 25 25 25 24 24 25 25 26 25 24 25 25 27 26 25 24 22 22 24 21 19 20 20 20 20 20 22 23 23 22 23 22 23 24 24 25 25 24 23 22 23 23 22 23 24 22 21 19 18 19 18 17 17 17 17 18 20 23 24 20 22 29 27 19 18 21 25 24 20 23 25 26 29 28 27 28 27 28 28 26 25 23 22 20 19
27 27 27 28 28 28 27 26 26 27 27 25 25 25 26 26 26 26 25 23 23 24 22 20 21 20 19 20 20 21 22 22 23 23 23 23 24 26 26 25 24 24 23 23 23 24 25 22 19 19 19 18 18 17 16 16 15 15 17 20 24 26 23 20 23 22 19 18 20 22 21 18 20 23 23 25 24 23 24 25 26 25 24 23 20 19 19 19
29 29 29 30 30 30 29 28 28 29 28 27 26 26 26 26 27 26 25 25 25 25 23 20 21 20 19 19 20 22 22 21 20 22 23 24 25 26 25 24 24 23 23 22 20 22 25 22 19 20 19 17 16 16 17 16 16 16 17 19 22 24 22 21 20 18 18 19 18 18 19 20 18 19 20 20 20 21 22 23 24 25 25 23 19 18 19 20
29 29 29 30 30 30 30 29 29 29 29 28 28 27 26 27 27 25 25 26 24 24 24 22 21 21 21 20 20 22 21 18 20 23 25 25 25 26 26 25 24 23 23 22 20 22 24 23 22 21 18 15 16 19 18 17 18 20 17 17 20 21 21 20 19 18 19 20 18 15 18 19 14 18 22 19 19 23 23 23 24 25 24 21 18 17 19 20
27 27 28 29 30 30 30 30 29 29 29 30 29 28 27 27 28 26 28 28 23 23 24 22 22 21 20 21 21 20 19 21 24 24 24 25 26 26 27 25 24 24 23 22 23 24 23 22 22 21 19 18 20 20 18 18 20 19 15 16 18 19 19 18 17 18 20 21 18 16 18 18 16 21 24 18 21 25 23 22 23 23 22 21 18 17 19 20
25 25 26 27 28 28 29 29 29 29 29 30 31 30 29 28 28 29 31 27 22 24 24 22 23 21 20 21 22 21 21 23 24 23 24 26 27 28 28 26 25 25 24 23 25 25 21 20 20 20 21 21 19 17 17 19 20 18 16 15 16 16 17 17 17 19 21 18 16 16 19 20 19 19 18 19 26 25 20 20 20 19 19 20 19 17 19 21
23 24 24 25 26 27 28 27 27 28 29 30 31 32 31 31 31 32 30 22 20 26 26 24 24 22 20 21 21 22 23 24 23 23 25 26 26 28 28 27 26 24 22 22 24 23 20 20 19 19 20 19 17 16 17 18 18 18 17 15 15 16 17 16 17 19 18 16 15 16 18 19 20 21 21 24 26 20 17 17 16 16 16 19 20 21 21 22
22 23 23 24 25 26 27 27 26 27 28 29 31 33 33 34 34 32 28 22 22 25 24 23 24 23 22 22 22 23 23 24 24 24 26 26 26 28 27 28 28 25 22 21 22 22 21 21 20 19 19 19 18 17 16 17 18 17 16 16 16 18 17 16 16 17 16 15 16 17 18 18 21 26 28 25 19 15 17 17 16 17 18 18 20 20 20 20
21 22 23 23 24 26 26 26 26 26 27 29 31 33 35 37 35 31 26 23 23 26 26 24 23 23 23 22 23 24 24 26 26 25 26 27 28 29 28 28 29 26 24 24 23 22 22 22 22 20 19 19 18 17 17 17 17 16 16 16 18 18 16 13 14 15 14 14 16 19 20 19 21 27 29 26 21 18 18 18 18 19 19 18 18 20 19 18
21 21 22 23 24 25 26 27 27 26 27 29 31 34 36 36 34 30 25 23 25 28 29 27 25 24 24 24 25 25 24 25 26 26 27 27 28 28 28 29 29 26 26 27 25 23 22 22 21 20 20 21 19 18 19 17 17 17 17 18 18 17 15 15 17 18 17 16 16 20 21 21 24 28 27 26 25 23 22 20 20 20 20 20 21 24 24 22
21 22 22 23 24 25 26 27 27 27 28 30 32 34 35 34 32 27 23 26 28 27 27 28 28 26 24 24 25 25 23 23 25 27 28 27 27 27 27 28 29 27 27 28 26 25 23 19 19 22 24 23 20 19 20 18 17 18 19 19 17 16 17 17 17 19 21 20 18 20 21 20 25 28 27 25 24 23 24 23 23 23 23 24 25 27 28 27
24 24 24 25 25 26 27 27 28 28 29 31 33 34 33 32 30 25 25 31 32 29 26 25 26 26 25 24 24 25 24 25 27 28 27 27 27 28 27 26 27 27 28 28 26 25 24 19 20 26 24 21 22 22 22 22 21 18 18 19 19 19 23 21 17 16 19 21 19 20 20 18 20 25 27 26 24 22 24 25 26 27 27 27 27 28 29 29
26 26 26 27 27 28 29 29 29 29 30 32 34 34 33 32 29 25 29 34 34 31 29 26 25 25 25 24 24 26 27 27 29 29 27 28 29 29 27 26 26 27 27 28 27 27 27 23 22 26 23 21 25 24 23 25 24 21 20 21 21 20 22 23 22 21 20 19 19 21 22 19 18 22 26 26 26 26 27 27 27 28 28 29 29 29 29 29
26 27 27 27 28 28 29 31 31 31 32 33 33 33 32 32 29 28 33 35 32 32 33 31 27 23 24 25 24 24 24 25 29 29 27 28 29 29 28 25 25 27 27 27 28 29 30 26 24 24 21 22 26 27 27 26 25 26 26 24 23 22 22 22 23 23 20 18 18 18 19 20 20 22 26 28 27 26 27 28 28 29 30 30 30 31 31 30
26 27 27 27 27 28 28 30 31 32 33 33 33 33 32 32 31 31 34 34 32 33 34 32 29 26 27 27 25 25 24 23 27 29 27 27 29 30 30 28 27 28 28 26 27 28 28 28 28 25 23 25 27 26 25 23 22 26 27 26 24 23 24 25 22 20 19 17 17 17 18 22 22 24 27 28 25 24 24 25 27 29 31 31 31 32 32 33
25 24 24 25 26 26 27 28 29 30 31 32 33 33 33 34 34 34 34 34 34 35 35 35 35 33 32 30 29 29 28 26 26 27 26 27 30 30 30 30 29 27 25 25 27 28 27 28 28 26 25 25 22 21 22 22 22 23 25 26 26 24 24 26 23 20 19 19 18 16 19 24 25 25 27 27 25 25 25 24 25 28 29 30 31 31 32 33
23 22 23 25 26 26 26 26 26 27 28 30 32 33 33 35 35 35 35 33 34 37 38 39 40 38 36 34 32 30 30 29 26 25 26 27 27 27 28 29 28 26 24 25 27 28 28 28 29 28 27 23 21 23 25 24 24 25 24 23 24 25 26 27 26 22 21 22 21 18 20 24 24 24 26 25 25 27 27 26 25 26 27 27 28 29 29 30
23 22 23 26 26 26 26 25 23 24 25 27 29 31 33 35 33 33 35 35 35 37 38 40 41 40 39 38 36 34 34 32 27 25 27 27 26 26 26 28 27 26 27 28 28 25 24 27 29 29 29 26 25 27 26 22 25 28 28 24 23 24 25 25 25 24 22 23 22 21 24 26 24 24 23 22 24 26 26 25 25 25 26 26 26 27 27 27
24 23 24 27 27 27 26 25 22 21 23 25 26 26 28 31 32 32 33 35 36 36 39 41 41 41 41 40 40 39 38 35 31 29 28 26 26 25 23 25 26 27 29 30 28 25 24 26 27 28 29 26 24 26 25 24 25 27 27 26 26 26 26 25 26 25 24 23 21 20 24 26 25 24 23 22 23 24 24 23 23 24 24 24 25 24 24 23
26 25 26 27 28 27 25 24 23 22 23 24 24 22 22 26 31 33 33 34 36 38 39 39 39 41 43 42 40 39 39 37 33 31 27 25 28 26 21 22 26 27 29 29 28 28 29 29 28 28 30 27 23 25 26 27 27 26 27 28 28 28 29 29 30 29 26 24 22 21 23 25 25 24 24 24 24 23 23 22 22 23 23 22 22 21 20 20
28 27 27 25 23 20 19 19 21 23 24 23 23 22 21 22 25 29 32 33 35 37 37 35 37 39 40 41 40 38 38 37 34 34 30 26 30 29 23 24 26 26 26 27 27 27 29 31 32 33 34 33 31 30 30 31 30 27 29 31 29 28 29 31 31 30 28 27 25 25 26 27 26 24 24 25 26 24 22 22 22 21 21 21 21 20 19 20
28 26 24 18 12 9 10 11 14 19 22 22 21 20 21 22 21 24 31 34 34 35 36 35 34 35 36 38 39 38 38 37 36 36 32 28 30 28 25 26 27 25 25 26 26 26 26 28 31 32 35 37 37 35 33 32 30 28 31 33 30 28 30 32 32 31 31 30 28 28 30 31 30 27 24 24 26 25 24 23 21 20 20 21 22 22 21 22
26 21 17 9 5 5 6 5 6 13 18 20 19 18 20 23 23 23 29 35 35 33 34 35 35 33 33 34 35 36 38 37 36 37 34 31 31 30 28 28 27 25 26 26 26 26 26 27 28 29 31 34 36 37 36 34 33 34 35 33 29 28 30 32 33 33 33 33 32 32 32 30 29 28 26 24 23 24 23 22 21 21 21 22 23 24 24 24
24 18 13 7 6 9 7 3 2 7 12 15 16 16 18 23 26 25 26 31 35 32 29 30 33 34 32 31 32 35 36 36 36 36 35 34 32 30 30 31 29 27 27 26 25 25 25 27 27 27 29 30 32 34 36 38 39 39 38 34 31 31 31 32 33 33 34 35 36 35 32 29 26 26 25 24 23 23 23 23 23 23 24 24 25 25 25 26
22 17 11 5 6 10 8 3 2 6 10 12 13 15 17 21 24 25 25 26 30 32 28 24 27 32 33 32 33 34 34 35 34 33 33 34 32 31 31 30 29 28 27 25 24 24 25 27 26 26 27 29 29 29 31 37 42 43 42 40 37 34 33 32 32 33 35 36 38 37 37 36 32 27 25 24 23 24 25 25 26 26 26 26 27 27 28 28
20 16 12 7 7 11 11 7 2 5 10 12 13 14 16 19 22 24 25 23 22 25 26 21 22 29 32 32 32 32 31 32 32 31 32 33 33 33 33 30 27 28 29 26 24 24 24 24 25 26 27 28 30 28 27 32 42 48 46 43 40 38 35 33 33 34 35 36 37 39 39 39 36 32 29 27 25 25 26 27 28 28 28 28 29 30 30 31
20 16 15 12 11 15 17 13 7 5 7 9 11 12 13 15 18 19 22 23 20 19 21 21 22 25 27 29 30 30 29 29 30 30 31 33 33 33 33 32 30 31 31 29 28 27 25 22 21 23 25 26 28 28 25 25 35 45 47 45 43 41 39 38 37 37 37 37 38 39 39 38 36 33 32 31 29 29 29 29 30 31 31 32 32 33 34 35
Wind_Direction
282 283 284 284 284 284 284 284 284 283 282 280 278 276 274 272 269 267 267 267 267 267 268 268 267 267 268 268 267 267 266 265 263 262 260 259 257 255 255 253 252 251 250 249 248 247 245 244 243 243 244 244 244 243 243 241 242 242 242 240 236 233 222 217 229 235 223 228 248 254 237 238 247 245 237 241 244 242 239 237 237 239 243 241 237 237 238 244
282 283 284 284 285 285 285 285 284 284 282 281 279 276 273 270 267 265 264 263 264 265 265 266 266 266 266 266 267 266 265 264 262 260 259 257 255 254 253 251 250 249 248 247 245 243 242 240 239 239 240 240 239 240 240 238 239 238 238 236 232 224 213 220 221 228 227 231 252 259 237 240 247 244 236 237 242 238 235 239 246 246 248 248 240 240 242 247
282 283 284 284 285 285 285 285 285 284 283 281 279 276 273 270 266 263 261 260 260 261 262 262 263 264 264 265 265 265 264 262 259 258 258 256 254 252 250 249 248 247 246 244 242 240 238 236 235 235 237 238 237 239 237 234 236 235 234 231 229 215 210 230 232 236 240 243 254 252 239 244 244 241 234 233 237 234 229 230 240 244 249 247 241 248 254 257
281 282 283 283 284 285 285 285 285 284 284 282 280 277 273 270 266 262 259 257 257 257 258 259 259 260 262 262 262 262 262 260 257 255 254 254 252 249 247 246 245 244 243 241 240 238 236 233 232 231 233 236 236 237 235 233 234 232 233 227 219 215 219 234 241 241 243 246 249 244 239 243 241 239 231 228 233 236 238 236 234 240 246 238 237 255 262 263
279 281 282 283 284 285 286 286 286 285 284 283 281 279 275 271 266 262 259 256 254 254 255 256 256 256 257 258 258 258 259 259 257 253 251 250 249 247 244 242 242 241 240 239 238 236 235 233 231 231 231 234 235 236 236 233 231 231 233 224 216 225 230 237 241 241 244 245 244 237 234 238 238 237 230 224 225 232 242 244 239 242 243 234 239 257 262 267
277 279 280 282 284 285 286 286 286 285 284 283 282 280 278 273 268 262 259 256 253 252 252 252 252 253 253 253 252 252 254 256 255 252 251 249 247 245 242 240 238 238 238 237 237 234 234 233 230 231 231 233 236 235 235 233 231 231 232 224 225 233 233 236 242 243 245 243 239 233 231 235 234 235 233 222 218 222 232 241 243 245 240 235 246 258 262 268
275 277 278 280 282 284 285 285 286 285 284 282 281 280 278 276 271 265 260 257 254 251 250 249 249 249 250 250 250 248 249 251 251 250 251 248 246 244 241 239 237 236 237 236 235 233 233 232 230 231 229 231 235 235 233 234 232 229 229 223 227 233 226 234 244 240 240 242 239 234 230 229 228 233 230 222 223 221 227 237 237 243 244 244 253 259 260 262
272 274 276 278 280 282 283 284 284 284 283 282 280 279 277 276 274 268 262 258 256 252 249 248 247 247 247 247 248 248 248 249 249 247 247 247 246 244 241 239 237 235 236 235 235 234 233 233 231 231 231 231 235 235 232 235 234 229 230 228 230 231 226 236 244 238 238 243 241 235 227 224 225 230 229 227 231 226 229 237 234 239 246 248 251 253 254 255
270 271 273 275 277 279 281 282 283 283 282 281 280 278 277 275 273 270 265 260 257 253 249 247 246 245 245 246 246 247 248 248 249 247 245 245 243 243 241 238 237 236 236 236 236 236 235 234 233 232 232 232 234 235 233 236 236 230 230 232 234 232 229 236 241 237 237 241 242 237 227 226 227 228 230 234 235 229 232 239 238 239 242 244 246 248 250 252
268 269 270 272 274 276 278 280 281 281 281 280 280 279 278 276 273 271 267 261 257 255 250 246 245 245 245 245 246 248 248 248 250 249 247 245 242 241 240 238 237 236 237 237 237 237 236 236 235 235 235 235 237 236 235 238 237 233 230 232 233 230 229 234 238 237 236 237 241 239 230 231 233 226 227 237 233 227 235 238 237 239 242 243 243 246 247 249
266 266 268 269 271 273 275 278 279 280 280 279 279 279 279 278 276 272 268 263 258 254 251 247 245 245 245 245 246 248 249 250 251 251 250 247 243 240 240 239 237 236 236 237 237 237 237 238 237 238 239 239 239 238 239 238 237 236 232 233 236 232 231 235 237 238 236 237 240 240 234 234 236 223 222 237 231 224 232 234 237 241 244 244 243 245 245 246
263 264 265 266 268 270 272 275 277 278 277 276 277 278 280 281 279 274 269 264 259 254 251 248 245 244 245 245 246 249 250 251 252 251 251 249 244 241 239 238 238 237 237 236 238 238 239 239 238 240 240 239 241 241 240 237 236 238 234 235 238 235 234 236 237 237 236 237 236 235 234 236 238 221 225 238 230 226 233 233 238 244 246 243 242 243 244 245
262 262 262 264 265 267 269 271 273 275 275 275 275 276 279 281 281 277 271 265 260 255 250 248 246 243 243 245 246 248 250 251 252 251 249 247 245 241 238 238 238 238 238 237 238 239 240 240 239 241 240 241 244 240 238 237 237 239 235 234 237 234 234 234 234 236 237 235 233 234 234 241 244 223 230 239 231 229 234 236 239 243 245 242 241 242 244 246
261 260 261 262 263 265 267 269 270 271 272 272 273 275 276 279 281 280 275 268 261 256 251 247 246 244 243 244 245 247 250 250 250 250 247 245 244 242 239 237 238 238 238 239 239 239 239 240 240 241 240 239 240 238 238 238 236 237 235 232 232 231 232 234 234 234 237 235 233 234 232 241 247 243 247 241 230 233 234 235 238 242 245 242 241 243 245 247
260 260 259 260 261 262 264 266 268 269 270 270 271 273 274 276 279 281 279 272 263 257 251 247 246 244 242 243 244 245 249 249 249 248 246 244 243 241 240 238 237 238 238 239 239 238 239 241 241 242 240 237 238 239 239 238 234 233 232 230 230 230 230 236 238 232 234 238 234 232 231 233 238 264 264 249 229 235 236 235 237 240 245 243 241 241 244 247
259 259 259 259 259 260 262 264 266 267 268 268 269 270 272 273 276 280 281 276 267 258 252 247 245 244 243 243 243 244 247 249 249 248 244 243 242 241 239 238 237 237 238 238 238 238 239 241 242 242 241 239 239 239 239 238 235 233 231 229 229 230 222 228 243 234 227 238 235 228 229 227 210 230 251 250 232 234 236 237 240 241 244 243 241 240 242 246
258 258 258 258 258 259 260 261 263 265 266 266 266 267 269 271 273 277 280 279 271 262 253 247 243 244 243 241 242 243 246 249 249 247 243 241 241 241 239 238 237 236 237 238 237 238 239 240 240 240 239 237 237 236 236 236 235 233 231 229 227 228 218 213 244 239 221 233 235 226 222 215 215 225 235 243 236 234 237 238 241 241 241 242 241 240 241 245
257 257 257 257 257 258 259 259 260 262 264 264 263 264 267 269 271 273 276 278 274 265 255 247 243 244 244 241 243 245 246 249 249 247 243 240 241 241 240 238 238 237 237 237 237 236 237 238 238 238 236 235 234 234 234 234 238 238 232 228 220 221 219 206 237 246 223 227 235 230 223 212 218 233 236 239 238 239 242 240 242 242 240 241 243 242 242 246
257 257 256 256 256 256 257 257 258 259 261 263 262 262 264 267 269 270 273 275 273 267 258 249 244 245 244 242 243 243 245 247 247 246 242 240 240 240 240 239 239 238 236 234 234 234 236 237 237 236 236 234 233 232 226 216 225 238 232 228 216 215 224 207 216 245 228 224 231 230 229 222 222 236 243 243 240 240 243 242 244 243 240 242 244 244 244 246
257 256 256 255 254 254 255 256 256 256 258 260 260 260 262 265 267 268 270 271 271 267 260 251 245 247 246 242 242 242 244 247 246 244 241 240 240 239 239 239 239 237 235 232 232 234 234 236 235 235 236 233 230 227 219 212 216 222 216 219 214 210 228 216 211 239 234 223 229 231 232 232 227 232 246 249 241 239 243 244 245 245 243 244 244 244 246 247
257 256 255 254 253 253 253 254 255 255 255 256 257 259 259 261 264 265 265 267 267 264 260 253 246 247 246 243 243 244 245 246 246 243 241 240 239 238 238 237 236 233 232 232 232 233 233 234 234 232 232 231 226 223 224 226 229 229 218 215 213 206 216 220 219 236 239 227 229 235 234 237 236 231 241 247 243 240 243 244 246 245 244 246 245 245 246 248
258 256 254 253 252 251 252 253 254 253 253 254 254 256 257 259 261 263 262 263 264 260 256 254 249 247 246 243 243 246 247 247 246 243 239 239 237 236 235 233 230 228 229 231 232 232 232 233 233 232 233 232 230 229 232 233 231 230 224 217 215 209 203 210 222 232 239 233 230 238 238 238 239 232 237 245 245 243 242 243 245 245 245 247 247 247 247 250
259 257 255 253 251 250 250 251 253 253 253 253 252 253 254 257 258 261 261 260 262 259 251 252 251 248 246 244 244 245 246 246 245 242 238 237 236 233 230 227 226 226 228 231 230 229 231 233 232 233 235 234 233 233 232 232 226 222 222 215 212 210 206 216 235 238 240 238 231 236 241 240 238 234 238 247 248 246 244 244 246 245 245 247 247 247 248 249
260 258 256 254 252 250 250 251 253 253 253 252 252 251 252 254 256 258 258 257 259 259 251 247 250 249 247 244 244 244 244 244 242 240 237 234 233 230 225 222 222 225 226 227 228 226 227 229 229 232 235 234 234 234 231 231 228 221 219 215 207 206 211 219 237 240 234 235 233 236 243 245 242 241 244 247 246 246 245 243 245 245 245 245 247 248 249 248
261 259 257 256 254 252 252 253 254 255 254 253 252 251 251 252 253 255 256 255 257 258 251 247 249 249 247 243 242 242 241 241 240 238 235 232 229 224 220 220 222 224 223 225 226 222 225 230 231 234 235 233 233 234 232 229 227 222 218 216 204 202 217 221 229 236 232 234 236 236 241 246 247 243 243 246 245 243 242 241 243 243 242 243 245 245 244 242
262 261 260 259 258 256 255 255 256 256 255 254 252 251 250 251 251 252 253 252 254 257 253 248 248 247 245 242 240 242 241 241 239 236 233 230 226 221 219 220 221 223 221 223 224 220 225 232 230 232 232 231 232 230 229 226 224 221 217 216 206 206 218 222 227 233 233 234 234 230 228 236 249 245 239 242 244 241 238 237 239 239 238 237 237 238 235 231
264 263 262 262 261 260 258 256 256 257 256 255 253 251 250 251 251 250 252 251 251 255 253 248 248 246 244 241 240 241 240 238 237 235 232 229 225 222 221 220 220 223 223 224 225 223 228 232 229 230 229 227 229 229 229 225 219 218 214 213 212 217 225 225 225 226 227 229 230 229 219 217 240 247 240 238 239 239 237 234 237 237 234 229 225 228 229 225
265 264 263 263 262 261 260 257 255 255 257 256 253 251 250 250 250 249 250 250 247 250 252 248 247 245 242 242 240 239 240 240 238 233 230 227 223 221 221 221 220 223 225 223 224 227 230 231 226 225 223 222 225 224 224 219 211 214 213 208 213 221 227 225 221 220 226 230 230 231 219 211 226 237 235 235 233 236 237 236 239 238 231 223 216 220 227 226
266 265 264 263 262 261 260 258 255 254 255 255 253 251 250 249 249 247 246 246 245 247 250 247 245 243 241 240 239 240 240 238 233 229 226 224 222 220 219 220 220 221 222 218 218 226 228 225 223 220 216 213 219 222 218 211 210 216 214 209 214 220 223 222 217 216 225 230 229 225 218 213 219 233 236 235 229 230 234 233 237 237 228 218 210 216 222 224
267 266 265 263 262 261 260 258 256 253 252 252 252 251 248 247 247 245 243 243 243 246 248 246 244 241 239 238 237 239 236 230 231 231 229 224 220 221 221 222 222 222 222 218 221 228 228 226 223 217 210 208 217 220 212 207 213 218 215 215 220 220 223 222 214 218 227 228 221 217 217 206 210 239 247 240 230 231 234 233 234 234 226 214 208 213 220 222
269 268 266 265 264 262 260 258 256 254 251 250 250 249 247 246 244 242 242 243 244 247 247 244 243 239 236 236 235 234 232 232 234 232 230 226 221 220 221 222 223 224 224 222 226 231 231 231 227 218 215 217 221 218 211 211 215 216 214 216 220 220 223 223 216 220 228 227 218 219 222 207 207 237 246 237 235 234 236 235 229 229 225 214 208 210 218 224
272 270 268 266 265 263 261 259 257 254 251 248 248 248 247 245 242 241 242 242 242 246 245 244 244 239 235 234 233 231 231 234 235 229 228 228 225 225 224 225 226 228 229 229 233 236 233 233 230 224 222 222 222 217 213 215 215 215 214 212 214 214 216 218 220 226 228 226 221 218 222 214 211 220 222 227 237 238 237 233 222 225 228 221 216 211 212 221
276 274 271 269 267 265 263 260 257 254 252 249 247 247 246 245 243 241 240 235 236 242 244 243 242 237 233 233 232 231 229 232 232 228 229 229 227 227 226 227 229 228 229 229 232 236 236 234 229 225 224 220 219 216 213 216 216 214 213 210 210 214 218 216 218 230 233 231 229 221 216 214 216 223 223 228 238 238 238 238 231 229 230 229 229 222 219 225
279 277 274 271 268 266 265 262 258 255 252 249 247 246 245 245 245 243 238 232 233 238 237 236 238 236 233 231 232 231 226 229 231 227 228 229 228 228 226 228 229 224 225 227 226 229 234 235 231 225 224 220 216 213 211 213 215 211 207 210 210 213 223 224 218 227 231 231 236 234 225 216 221 230 231 234 239 235 232 237 242 241 240 246 250 248 245 242
283 280 277 274 270 267 265 262 259 255 252 249 247 246 245 245 246 245 240 232 231 237 238 235 236 235 232 230 232 231 224 226 232 229 229 230 231 231 229 230 230 224 224 227 226 226 230 234 235 229 225 221 215 214 215 210 211 213 206 205 211 215 223 230 227 222 216 214 227 237 233 224 226 232 234 236 236 229 227 233 239 243 248 254 257 259 261 256
286 283 280 277 274 270 266 263 260 255 252 249 247 246 246 247 246 243 239 231 227 233 236 235 233 231 232 231 230 232 226 222 228 230 229 231 233 234 231 232 232 226 224 227 226 225 225 230 237 233 226 223 216 215 219 211 207 220 217 207 211 221 220 227 237 230 218 215 225 239 239 230 234 239 239 237 229 222 228 233 231 233 238 244 248 255 260 260
288 286 283 280 276 273 269 265 261 257 252 250 248 248 247 247 245 237 234 230 225 226 231 230 230 228 229 229 227 230 227 220 225 230 229 229 231 233 233 233 232 227 223 225 226 224 221 216 228 235 231 227 221 217 220 215 204 214 224 213 212 223 220 218 227 230 225 223 230 244 244 234 241 251 249 242 236 234 236 234 231 230 233 238 244 249 254 259
291 289 285 281 278 274 271 267 263 258 254 250 249 248 246 246 243 234 233 232 227 228 232 228 227 227 227 227 225 228 228 222 225 229 228 228 228 229 230 230 232 229 223 224 225 227 224 213 219 231 232 233 230 220 221 222 210 208 218 214 212 224 229 227 229 230 232 232 231 242 249 241 239 252 255 250 246 244 241 237 235 234 235 238 242 246 250 254
295 293 289 285 280 275 272 268 264 259 255 252 250 249 246 245 242 235 235 234 227 228 230 225 222 224 224 223 219 224 230 227 225 225 225 229 229 226 222 219 225 228 224 221 220 225 226 218 218 225 223 228 231 224 222 225 219 217 219 214 212 219 226 229 233 233 234 239 237 238 249 247 233 235 247 249 245 243 240 238 238 237 238 240 242 244 248 251
300 298 293 288 282 278 274 269 265 261 257 254 250 247 244 241 237 234 235 233 226 225 226 220 218 220 221 219 215 216 221 222 223 223 222 226 229 229 224 220 223 226 224 220 218 221 224 220 221 224 218 222 230 231 228 227 226 229 227 221 218 223 227 228 229 228 223 229 238 234 238 243 235 232 242 247 249 250 244 238 237 238 241 242 244 245 247 249
307 302 295 289 284 280 276 271 267 263 258 254 250 246 243 238 233 231 234 231 225 223 222 217 216 217 218 218 217 217 220 223 226 223 216 217 224 229 226 225 227 229 226 222 219 220 222 220 219 221 222 223 227 233 230 222 221 231 234 228 223 224 230 232 232 232 227 224 227 228 234 240 238 238 244 249 251 251 246 240 239 240 241 242 244 245 246 248
312 305 295 291 288 283 279 275 269 262 256 253 250 245 241 238 232 229 232 231 226 224 222 220 219 219 218 219 218 218 219 221 224 222 216 215 222 227 226 224 226 227 226 225 224 221 221 222 218 219 225 225 221 223 227 222 217 221 227 229 225 225 230 233 231 232 236 234 227 225 235 241 239 238 242 244 244 244 244 242 240 240 240 241 242 243 244 245
317 308 299 294 289 284 281 277 271 262 252 247 247 245 241 238 233 228 229 229 227 226 224 222 221 220 221 221 219 218 218 217 217 221 223 223 226 230 230 226 223 224 226 229 230 226 224 225 222 222 227 228 226 226 227 224 221 222 226 226 224 225 231 235 234 231 233 237 234 231 236 242 242 240 241 240 238 240 242 241 239 239 240 241 242 243 243 244
320 312 304 298 292 287 281 273 263 253 246 240 239 241 240 237 231 226 226 228 225 225 226 224 222 221 222 221 219 219 221 218 216 221 226 229 234 236 233 227 223 224 228 231 233 232 230 230 227 224 226 227 231 235 233 229 227 228 230 229 225 225 226 229 234 233 231 231 231 231 235 241 245 244 242 242 240 238 239 238 238 239 239 240 241 241 242 242
324 316 309 302 294 288 279 267 253 240 236 234 231 231 232 233 229 223 222 225 224 223 226 225 223 222 222 222 220 220 222 221 219 222 224 229 239 241 236 231 227 228 231 233 234 233 232 233 232 229 228 222 220 226 231 233 233 232 233 234 231 229 227 228 230 232 234 235 233 234 236 237 241 242 240 239 237 236 236 235 236 236 236 236 238 239 239 238
328 320 315 306 297 290 280 266 248 233 228 228 228 227 224 225 227 221 218 221 222 223 227 225 223 224 223 222 221 221 224 223 223 224 223 229 241 243 242 239 233 231 234 235 235 235 236 236 235 234 233 229 222 221 225 230 232 233 236 238 237 232 230 230 231 231 235 236 236 240 242 240 239 240 238 235 233 231 231 230 230 232 232 234 238 240 240 239
333 326 322 315 306 303 293 273 246 228 221 221 224 224 218 214 218 216 215 217 218 221 224 224 223 222 221 221 221 222 224 223 224 226 225 230 238 238 238 239 234 233 237 237 237 239 240 240 239 239 239 237 233 229 228 229 228 228 233 236 236 235 233 233 233 232 232 234 234 236 240 242 241 239 237 234 230 227 227 228 229 230 232 234 238 242 243 245
340 338 342 348 8 360 332 305 247 220 214 215 218 220 216 214 214 212 212 213 215 218 221 222 221 219 218 219 220 221 224 224 225 226 224 228 235 235 237 239 237 237 240 241 242 243 245 246 245 244 243 241 238 235 235 236 232 230 235 238 237 237 237 237 237 236 235 236 237 238 240 242 240 238 236 233 228 225 227 229 230 232 235 237 240 243 246 248
357 2 14 33 25 359 347 338 221 209 207 209 214 217 217 216 216 216 213 212 214 216 218 220 219 216 215 216 217 220 223 224 225 226 225 228 233 236 238 239 239 241 243 245 246 246 248 250 249 248 246 243 240 239 241 243 240 234 234 235 235 234 234 235 238 240 240 240 241 243 244 244 241 239 236 231 228 228 230 231 233 235 237 239 243 245 247 249
15 22 31 34 1 357 356 339 250 211 204 204 208 214 216 214 214 216 216 213 213 215 216 216 217 215 213 214 216 220 222 223 226 227 227 230 232 234 236 237 239 242 243 245 247 246 248 252 252 250 248 245 244 246 246 245 243 239 235 233 233 234 234 234 235 237 240 241 243 244 245 246 247 245 241 236 232 232 234 234 236 238 240 243 246 247 248 249
23 26 24 17 7 12 13 1 316 208 202 206 209 209 209 208 209 212 213 210 208 208 209 209 213 216 215 216 218 221 223 225 228 229 230 233 235 236 238 239 242 245 246 247 248 249 250 251 252 252 250 249 249 252 252 245 241 240 239 236 233 231 232 235 236 236 238 239 240 242 243 244 246 246 246 245 241 239 240 239 239 239 241 243 246 248 249 249
24 22 20 22 25 28 34 41 58 117 166 194 207 207 203 203 204 205 206 206 204 204 206 209 213 217 217 218 219 222 225 227 229 230 232 235 237 238 240 242 244 247 249 248 247 247 247 248 249 250 250 249 247 248 250 245 238 237 238 238 236 232 230 232 233 235 237 238 239 241 242 243 243 243 245 246 245 244 245 245 244 242 242 244 246 247 248 248